When you browse on this site, cookies collect data to enhance your experience and personalize the content and advertising you see.
Visit our Privacy Policy to learn more. By continuing to use the site, you agree to this use of cookies and data.
  • In Portugal
  • List of Countries
  • For 7 days
  • Water Temperature
  • Weather Map
  • Weather Widgets
  • user-avatar
    Login

    Hourly Weather Lyamino

    Today, 21 August, Wednesday

    Time Temperature Precipitation Wind Pressure Humidity
    00:00 +16°C° 0 mm 2 mps 752 mmHg 96%
    01:00 +16°C° 0 mm 2 mps 752 mmHg 95%
    02:00 +16°C° 0 mm 2 mps 752 mmHg 96%
    03:00 +16°C° 0 mm 2 mps 753 mmHg 96%
    04:00 +15°C° 0 mm 2 mps 753 mmHg 96%
    05:00 +15°C° 0 mm 2 mps 753 mmHg 94%
    06:00 +15°C° 0 mm 2 mps 753 mmHg 93%
    07:00 +15°C° 0 mm 2 mps 754 mmHg 91%
    08:00 +17°C° 0 mm 2 mps 754 mmHg 83%
    09:00 +18°C° 0 mm 2 mps 754 mmHg 76%
    10:00 +20°C° 0 mm 2 mps 755 mmHg 68%
    11:00 +21°C° 0 mm 2 mps 755 mmHg 64%
    12:00 +23°C° 0 mm 2 mps 755 mmHg 59%
    13:00 +24°C° 0 mm 2 mps 755 mmHg 54%
    14:00 +24°C° 0 mm 2 mps 755 mmHg 54%
    15:00 +24°C° 0 mm 1 mps 755 mmHg 53%
    16:00 +23°C° 0 mm 1 mps 755 mmHg 53%
    17:00 +22°C° 0 mm 1 mps 755 mmHg 60%
    18:00 +20°C° 0 mm 1 mps 755 mmHg 68%
    19:00 +19°C° 0 mm 1 mps 755 mmHg 75%
    20:00 +18°C° 0 mm 1 mps 755 mmHg 77%
    21:00 +16°C° 0 mm 1 mps 755 mmHg 78%
    22:00 +14°C° 0 mm 1 mps 755 mmHg 80%
    23:00 +13°C° 0 mm 0 mps 755 mmHg 81%

    Tomorrow, 22 August, Thursday

    Time Temperature Precipitation Wind Pressure Humidity
    00:00 +13°C° 0 mm 0 mps 755 mmHg 82%
    01:00 +12°C° 0 mm 0 mps 755 mmHg 83%
    02:00 +13°C° 0 mm 1 mps 755 mmHg 83%
    03:00 +13°C° 0 mm 1 mps 755 mmHg 82%
    04:00 +13°C° 0 mm 1 mps 755 mmHg 82%
    05:00 +14°C° 0 mm 1 mps 755 mmHg 81%
    06:00 +15°C° 0 mm 1 mps 755 mmHg 80%
    07:00 +16°C° 0 mm 1 mps 754 mmHg 78%
    08:00 +17°C° 0 mm 2 mps 754 mmHg 76%
    09:00 +19°C° 0 mm 2 mps 754 mmHg 74%
    10:00 +21°C° 0 mm 2 mps 754 mmHg 72%
    11:00 +23°C° 0 mm 2 mps 754 mmHg 72%
    12:00 +23°C° 0 mm 2 mps 754 mmHg 71%
    13:00 +24°C° 0 mm 2 mps 754 mmHg 70%
    14:00 +24°C° 0.5 mm 2 mps 753 mmHg 74%
    15:00 +24°C° 0.5 mm 2 mps 753 mmHg 78%
    16:00 +24°C° 0.5 mm 2 mps 753 mmHg 82%
    17:00 +23°C° 0.3 mm 2 mps 753 mmHg 85%
    18:00 +21°C° 0.3 mm 2 mps 753 mmHg 89%
    19:00 +20°C° 0.3 mm 2 mps 752 mmHg 92%
    20:00 +20°C° 0.1 mm 2 mps 752 mmHg 94%
    21:00 +19°C° 0.1 mm 2 mps 752 mmHg 95%
    22:00 +18°C° 0.1 mm 2 mps 752 mmHg 97%
    23:00 +18°C° 0 mm 2 mps 752 mmHg 97%

    Day after tomorrow, 23 August, Friday

    Time Temperature Precipitation Wind Pressure Humidity
    00:00 +18°C° 0 mm 2 mps 752 mmHg 97%
    01:00 +18°C° 0 mm 3 mps 752 mmHg 97%
    02:00 +18°C° 0 mm 3 mps 751 mmHg 97%
    03:00 +17°C° 0 mm 3 mps 751 mmHg 97%
    04:00 +17°C° 0 mm 3 mps 751 mmHg 97%
    05:00 +18°C° 0.1 mm 3 mps 751 mmHg 96%
    06:00 +18°C° 0.1 mm 4 mps 750 mmHg 95%
    07:00 +18°C° 0.1 mm 4 mps 750 mmHg 94%
    08:00 +19°C° 0.2 mm 4 mps 750 mmHg 94%
    09:00 +19°C° 0.2 mm 4 mps 750 mmHg 94%
    10:00 +19°C° 0.2 mm 4 mps 750 mmHg 94%
    11:00 +20°C° 0.1 mm 4 mps 751 mmHg 86%
    12:00 +20°C° 0.1 mm 4 mps 751 mmHg 77%
    13:00 +21°C° 0.1 mm 4 mps 751 mmHg 68%
    14:00 +21°C° 0 mm 4 mps 751 mmHg 66%
    15:00 +21°C° 0 mm 4 mps 751 mmHg 63%
    16:00 +20°C° 0 mm 4 mps 752 mmHg 61%
    17:00 +19°C° 0 mm 4 mps 752 mmHg 66%
    18:00 +18°C° 0 mm 3 mps 752 mmHg 71%
    19:00 +17°C° 0 mm 3 mps 752 mmHg 77%
    20:00 +16°C° 0 mm 2 mps 752 mmHg 80%
    21:00 +15°C° 0 mm 2 mps 752 mmHg 83%
    22:00 +14°C° 0 mm 2 mps 752 mmHg 86%
    23:00 +13°C° 0 mm 2 mps 752 mmHg 88%

    24 August, Saturday

    Time Temperature Precipitation Wind Pressure Humidity
    00:00 +13°C° 0 mm 2 mps 753 mmHg 91%
    01:00 +12°C° 0 mm 2 mps 753 mmHg 93%
    02:00 +12°C° 0 mm 2 mps 753 mmHg 94%
    03:00 +12°C° 0 mm 2 mps 753 mmHg 95%
    04:00 +12°C° 0 mm 2 mps 753 mmHg 96%
    05:00 +12°C° 0 mm 2 mps 753 mmHg 93%
    06:00 +13°C° 0 mm 2 mps 753 mmHg 90%
    07:00 +14°C° 0 mm 2 mps 753 mmHg 87%
    08:00 +14°C° 0 mm 3 mps 753 mmHg 79%
    09:00 +17°C° 0 mm 3 mps 753 mmHg 72%
    10:00 +19°C° 0 mm 3 mps 753 mmHg 64%
    11:00 +19°C° 0 mm 4 mps 753 mmHg 61%
    12:00 +20°C° 0 mm 4 mps 753 mmHg 58%
    13:00 +21°C° 0 mm 4 mps 752 mmHg 56%
    14:00 +20°C° 0.2 mm 4 mps 752 mmHg 61%
    15:00 +19°C° 0.2 mm 3 mps 752 mmHg 67%
    16:00 +19°C° 0.2 mm 3 mps 752 mmHg 72%
    17:00 +18°C° 0.1 mm 3 mps 752 mmHg 77%
    18:00 +17°C° 0.1 mm 2 mps 752 mmHg 81%
    19:00 +16°C° 0.1 mm 2 mps 752 mmHg 86%
    20:00 +15°C° 0 mm 2 mps 752 mmHg 89%
    21:00 +14°C° 0 mm 2 mps 752 mmHg 92%
    22:00 +13°C° 0 mm 2 mps 753 mmHg 95%
    23:00 +12°C° 0 mm 2 mps 752 mmHg 95%

    25 August, Sunday

    Time Temperature Precipitation Wind Pressure Humidity
    00:00 +12°C° 0 mm 2 mps 752 mmHg 95%
    01:00 +12°C° 0 mm 2 mps 752 mmHg 96%
    02:00 +10°C° 0 mm 2 mps 752 mmHg 96%
    03:00 +10°C° 0 mm 2 mps 752 mmHg 96%
    04:00 +10°C° 0 mm 2 mps 752 mmHg 97%
    05:00 +12°C° 0 mm 2 mps 752 mmHg 95%
    06:00 +13°C° 0 mm 2 mps 752 mmHg 93%
    07:00 +13°C° 0 mm 2 mps 752 mmHg 91%
    08:00 +14°C° 0 mm 3 mps 751 mmHg 85%
    09:00 +16°C° 0 mm 3 mps 751 mmHg 79%
    10:00 +18°C° 0 mm 4 mps 751 mmHg 73%
    11:00 +18°C° 0 mm 4 mps 750 mmHg 71%
    12:00 +19°C° 0 mm 4 mps 750 mmHg 69%
    13:00 +19°C° 0 mm 4 mps 749 mmHg 67%
    14:00 +19°C° 0.1 mm 4 mps 749 mmHg 70%
    15:00 +18°C° 0.1 mm 4 mps 748 mmHg 73%
    16:00 +18°C° 0.1 mm 4 mps 748 mmHg 77%
    17:00 +17°C° 0.7 mm 4 mps 747 mmHg 82%
    18:00 +17°C° 0.7 mm 4 mps 747 mmHg 88%
    19:00 +15°C° 0.7 mm 4 mps 746 mmHg 93%
    20:00 +15°C° 0.4 mm 4 mps 746 mmHg 94%
    21:00 +14°C° 0.4 mm 4 mps 746 mmHg 94%
    22:00 +14°C° 0.4 mm 4 mps 745 mmHg 95%
    23:00 +14°C° 0.1 mm 3 mps 745 mmHg 95%

    26 August, Monday

    Time Temperature Precipitation Wind Pressure Humidity
    00:00 +13°C° 0.1 mm 3 mps 745 mmHg 96%
    01:00 +13°C° 0.1 mm 3 mps 745 mmHg 96%
    02:00 +12°C° 0 mm 3 mps 745 mmHg 96%
    03:00 +11°C° 0 mm 3 mps 744 mmHg 96%
    04:00 +10°C° 0 mm 3 mps 744 mmHg 96%
    05:00 +10°C° 0 mm 4 mps 744 mmHg 95%
    06:00 +10°C° 0 mm 4 mps 745 mmHg 94%
    07:00 +10°C° 0 mm 4 mps 745 mmHg 93%
    08:00 +10°C° 0.3 mm 4 mps 745 mmHg 93%
    09:00 +9°C° 0.3 mm 5 mps 746 mmHg 94%
    10:00 +9°C° 0.3 mm 5 mps 746 mmHg 94%
    11:00 +9°C° 0.2 mm 5 mps 747 mmHg 92%
    12:00 +9°C° 0.2 mm 5 mps 748 mmHg 89%
    13:00 +9°C° 0.2 mm 6 mps 748 mmHg 86%
    14:00 +9°C° 0.1 mm 6 mps 749 mmHg 83%
    15:00 +8°C° 0.1 mm 6 mps 749 mmHg 79%
    16:00 +8°C° 0.1 mm 6 mps 750 mmHg 76%
    17:00 +7°C° 0 mm 5 mps 750 mmHg 73%
    18:00 +7°C° 0 mm 5 mps 751 mmHg 71%
    19:00 +6°C° 0 mm 5 mps 751 mmHg 68%
    20:00 +6°C° 0 mm 5 mps 751 mmHg 70%
    21:00 +5°C° 0 mm 4 mps 752 mmHg 71%
    22:00 +5°C° 0 mm 4 mps 752 mmHg 73%
    23:00 +4°C° 0 mm 4 mps 752 mmHg 75%
    Show more